User: anonymous   Login
Location: Pacheco
(37.9835°N, 122.0752°W)
Time: 11:21:09
(UTC+00:00)
Language:

Cosmos 1048 Rocket - Orbit

View from above orbital plane
View from above orbital plane
View from above satellite
View from above satellite

Ground track
Ground track

The orbit data is extracted from the following two-line orbital elements,

1 11112U 78105B   24172.21466573  .00000319  00000-0  11357-3 0  9990
2 11112  74.0295 134.7009 0032675  26.3512 333.9294 14.38025800387575
Epoch (UTC): 20 June 2024 05:09:07
Eccentricity: 0.0032675
inclination: 74.0295°
perigee height: 741 km
apogee height: 788 km
right ascension of ascending node: 134.7009°
argument of perigee: 26.3512°
revolutions per day: 14.38025800
mean anomaly at epoch: 333.9294°
orbit number at epoch: 38757

The dashed part of the orbit path shows where the satellite is in the earth's shadow,  

DLR